Weather in Kimovaara

Russia / Republic of Karelia     63°38′39″N   31°02′21″E
temp.,
°C
wind,
m/s
gust,
m/s
humid.,
%
clouds,
%
prec.,
mm/h
press.,
hPa
HPBL,
m
1 march, mon
mon100:00+1wsw51097100 0.0 1012508
03:00+2w51397100 0.0 1012622
06:00+1w61493100 0.0 1009668
09:00+1w51394100 0.0 1009753
12:00+2w61498100 0.3 1007872
15:00+1w51295100 1.6 1005919
18:00+1wnw7149294 0.2 10031164
21:00−1wnw6158467 0.3 1003725
2 march, tue
tue200:00−2wnw615850 0.0 1003633
03:00−3wnw616810 0.0 1004667
06:00−4wnw514880 0.0 1004686
09:00−4nw5138945 0.0 1006826
12:00−2nw6146911 0.0 10081605
15:00−2nw614705 0.0 10111693
18:00−4wnw412820 0.0 1012510
21:00−5wnw412890 0.0 1012387
3 march, wed
wed300:00−5wnw4129120 0.0 1011374
03:00−5wnw5139118 0.0 1011451
06:00−6wnw4119231 0.0 1010400
09:00−6wnw4119160 0.0 1010365
12:00−3w48885 0.0 1008464
15:00−2wsw479137 0.0 1005470
18:00−3sse2398100 0.8 100097
21:00−3ne3796100 3.3 997327
4 march, thu
thu400:00−5n2797100 0.1 997265
03:00−6n3896100 0.6 999352
06:00−7nnw4109596 0.2 1000510
09:00−8n5109197 0.4 1001574
12:00−7nnw4888100 0.0 1002590
15:00−6nnw5882100 0.1 1003959
18:00−7nnw4987100 0.1 1004754
21:00−9nw3993100 0.2 1005581
5 march, fri
fri500:00−11nw379688 0.1 1005233
03:00−10nw269692 0.2 1006239
06:00−13nw229781 0.1 100841
09:00−11nne379491 0.2 1009364
12:00−9nne248069 0.0 1011708
15:00−8nw358784 0.1 1013641
18:00−10n259098 0.3 1014134
21:00−14n129349 0.3 101620